Zurück zum Katalog

ONEWEB-0032

AktivKommunikationPO
NORAD 45141·PAYLOAD·🇬🇧 United Kingdom

Gestartet Feb 6, 2020 von Baikonur Cosmodrome

Loading…

Nächste Überflüge (nächste 24 Stunden)

TLE

AktuellSource: CelesTrak SupGP

Epoche: Sep 14, 2026, 16:03 UTC

1 45141C 20008L   26257.66889306  .00002970  00000+0  85194-2 0  2576
2 45141  87.8902  18.4540 0002164 110.1507   1.2253 13.10366641    16

Verfolge ONEWEB-0032 in Echtzeit mit AllMySat

Download on the App Store